Location: Barcelonnette
(44.3867°N, 6.6535°E)
Time: 18:41:43
(UTC+00:00)

Daily predictions for brighter satellites

Satellite Brightness Start Highest point End
(mag) Time Altitude Azimuth Time Altitude Azimuth Time Altitude Azimuth
STARLINK-1068 4.4 17:40:05 10° WSW 17:44:06 50° NNW 17:48:09 10° NE
STARLINK-1061 3.9 17:41:44 10° SW 17:45:44 52° SE 17:49:46 10° ENE
CZ-4 R/B 1.4 17:41:37 10° SSE 17:45:45 65° ENE 17:49:51 10° N
Lacrosse 4 Rocket 4.2 17:45:50 10° WNW 17:47:40 12° NW 17:49:32 10° NNW
Cosmos 1633 Rocket 3.6 17:45:16 10° SSW 17:49:33 64° W 17:53:54 10° N
YAOGAN 1 2.6 17:45:43 10° SSE 17:49:57 57° ENE 17:54:13 10° N
STARLINK-1067 3.8 17:46:40 10° SW 17:50:43 56° SE 17:54:47 10° ENE
Cosmos 2263 4.4 17:45:27 10° SSW 17:51:14 82° WNW 17:57:02 10° NNE
Ariane Rocket 4.0 17:48:55 10° ESE 17:53:07 26° ENE 17:57:19 10° N
STARLINK-1058 3.7 17:51:35 10° SW 17:55:40 62° SE 17:59:45 10° ENE
NOSS 2-3 (C) 4.2 17:51:27 10° SW 17:55:44 62° NW 18:00:50 10° NNE
USA 116 4.1 17:53:34 10° NNE 17:57:48 59° ESE 18:02:31 10° S
Cosmos 990 Rocket 4.4 17:53:30 10° N 17:58:20 39° ENE 18:03:08 10° SE
Cosmos 1943 Rocket 3.5 17:54:01 10° SW 17:59:16 41° WNW 18:04:31 10° NNE
CSL-04 Debris 4.2 17:54:02 10° SSE 17:59:26 68° ENE 18:04:54 10° N
Cosmos 1933 Rocket 3.5 17:56:11 10° S 18:00:32 65° E 18:04:53 10° NNE
STARLINK-1043 3.7 17:56:32 10° SW 18:00:38 67° SE 18:04:45 10° ENE
Cosmos 2297 Rocket 3.9 17:58:49 10° N 18:02:02 15° NE 18:05:00 11° ENE
SKYMED 2 4.0 17:58:34 10° N 18:02:54 67° WNW 18:07:12 10° SSW
STARLINK-1065 3.6 18:01:19 10° SW 18:05:25 72° SE 18:09:29 10° ENE
Cosmos 1340 3.1 18:03:38 10° SSW 18:07:22 65° WNW 18:11:07 10° N
NOAA 11 4.2 18:02:30 10° SSE 18:07:57 88° ENE 18:13:24 10° NNW
Cosmos 1346 Rocket 2.8 18:04:23 10° SSW 18:08:21 84° W 18:12:20 10° N
STARLINK-1063 3.6 18:06:25 10° SW 18:10:33 79° SE 18:14:25 12° ENE
Cosmos 1464 Rocket 4.2 18:05:09 10° SSE 18:11:15 51° E 18:17:24 10° NNE
OE (NEXTSAT) 4.3 18:08:43 10° WNW 18:12:13 89° SSW 18:14:56 16° ESE
Cosmos 1937 Rocket 4.0 18:08:11 10° N 18:13:06 39° ENE 18:17:56 10° SE
STARLINK-1064 3.6 18:11:23 10° SW 18:15:31 85° SE 18:19:12 13° ENE
ADEOS Rocket 3.6 18:09:06 10° NNE 18:16:55 69° ESE 18:24:24 10° S
Meteor 1-20 Rocket 4.1 18:14:24 10° S 18:19:52 74° E 18:25:26 10° NNE
STARLINK-1041 3.6 18:16:22 10° SW 18:20:31 89° NNW 18:23:59 14° NE
Cosmos 2227 Rocket 3.7 18:17:35 10° N 18:21:23 18° NE 18:23:26 15° ENE
DMSP B5D1-3 4.5 18:16:17 10° NNE 18:21:27 73° ESE 18:26:36 10° S
Cosmos 1656 Rocket 4.0 18:18:07 10° SSW 18:23:37 68° WNW 18:29:14 10° NNE
STARLINK-1038 3.6 18:21:19 10° WSW 18:25:28 83° NNW 18:28:44 16° NE
H-2A R/B 2.6 18:25:05 10° SE 18:30:04 40° ENE 18:35:07 10° N
STARLINK-1046 3.7 18:26:19 10° WSW 18:30:28 77° NNW 18:33:32 17° NE
Cosmos 2034 Rocket 4.0 18:27:52 10° SSE 18:33:48 53° E 18:39:45 10° NNE
STARLINK-1039 3.8 18:31:21 10° WSW 18:35:29 72° NNW 18:38:21 19° NE
Cosmos 220 Rocket 3.9 18:32:33 10° S 18:36:50 66° ESE 18:41:05 10° NNE
Meteor 1-18 Rocket 4.2 18:33:35 10° N 18:39:31 82° E 18:45:18 10° SSE
COSMOS 2487 3.7 18:37:03 10° NNW 18:40:20 43° WSW 18:43:37 10° S
STARLINK-1045 3.9 18:36:20 10° WSW 18:40:27 67° NNW 18:43:08 21° NE
STARLINK-43 3.2 18:41:17 10° NW 18:45:00 80° NNE 18:46:22 37° ESE
HJ-1C 3.4 18:41:50 10° S 18:45:06 78° WSW 18:48:26 10° NNW
STARLINK-1050 4.0 18:41:23 10° WSW 18:45:29 61° NNW 18:47:58 22° NE
Cosmos 468 Rocket 4.1 18:41:15 10° SSW 18:46:33 82° WNW 18:51:54 10° NNE
Lacrosse 5 rocket 3.0 18:42:58 10° NW 18:46:47 25° NNE 18:48:11 22° NE
Timation 2 Rocket 4.2 18:39:55 10° NNW 18:46:52 85° ENE 18:53:42 10° SSE
Okean 1 3.3 18:43:33 10° N 18:47:34 84° W 18:51:32 10° S
Okean 1-7 3.2 18:44:18 10° NNW 18:48:37 74° W 18:52:58 10° S
Cosmos 2219 3.8 18:44:51 10° NNW 18:50:13 38° NE 18:52:15 29° E
STARLINK-1055 4.1 18:46:23 10° WSW 18:50:28 57° NNW 18:52:44 24° NE
Lacrosse 5 1.8 18:47:16 10° SW 18:52:21 84° SE 18:55:38 23° NE
NOSS 2-2 (E) 4.1 18:49:24 10° S 18:51:53 30° SE 18:51:53 30° SE
MOS 1 4.2 18:47:06 10° SSE 18:52:41 64° ENE 18:58:17 10° N
Cosmos 405 3.9 18:49:58 10° NNW 18:53:25 50° W 18:56:51 10° S
Cosmos 1092 Rocket 4.2 18:47:49 10° N 18:53:56 47° ENE 18:58:48 16° SE
STARLINK-1022 4.2 18:51:24 10° WSW 18:55:27 53° NNW 18:57:31 26° NE
Meteor 1-14 Rocket 4.2 18:51:28 10° S 18:57:00 84° W 19:02:37 10° N
Cosmos 1634 Rocket 4.5 18:51:57 10° SSE 18:57:38 36° E 19:03:20 10° NNE
Meteor 2-4 Rocket 3.8 18:52:06 10° N 18:57:59 61° ENE 19:03:42 11° SSE
USA 234 4.5 18:55:21 16° NE 18:59:26 30° N 19:04:55 10° NW
Gbstr 26 Del rocket 3.6 18:55:44 10° W 18:59:45 54° NNW 19:02:07 27° NE
Cosmos 1814 Rocket 4.0 18:55:28 10° S 19:00:26 54° ESE 19:05:28 10° NNE
STARLINK-1042 4.3 18:56:26 10° WSW 19:00:28 50° NNW 19:02:19 28° NE
Cosmos 1602 4.5 18:59:55 10° SSW 19:03:43 53° W 19:07:31 10° N
USA 186 3.5 19:05:54 19° N 19:05:54 19° N 19:06:55 10° N
STARLINK-1056 4.4 19:01:27 10° W 19:05:28 47° NNW 19:07:07 30° NNE
Cosmos 44 Rocket 3.6 19:00:50 10° NW 19:05:32 63° WSW 19:08:48 20° SSE
Cosmos 1898 Rocket 4.1 19:01:01 10° NNW 19:06:05 55° WSW 19:11:08 10° S
Cosmos 841 Rocket 3.3 19:01:22 10° S 19:06:28 69° ESE 19:11:38 10° NNE
Cosmos 1763 Rocket 3.8 19:01:44 10° SSW 19:06:56 67° WNW 19:12:13 10° NNE
SJ 16-02 2.2 19:02:57 10° NNW 19:07:13 50° WSW 19:11:27 10° S
STARLINK-48 4.0 19:03:46 10° NW 19:07:31 42° NNE 19:07:38 42° NNE
NOSS 3-2 (A) 4.3 19:00:20 10° NNW 19:07:32 51° NE 19:10:56 33° E
ARGOS 3.0 19:04:37 16° SSE 19:09:02 72° ENE 19:14:29 10° N
Resurs 01 Rocket 3.4 19:11:23 19° NNE 19:11:23 19° NNE 19:13:05 10° N
Meteor 1-19 Rocket 4.5 19:04:30 10° NNW 19:10:14 71° W 19:15:47 10° S
STARLINK-1054 4.5 19:06:27 10° W 19:10:26 45° NNW 19:11:52 32° NNE
Cosmos 2298 Rocket 4.2 19:06:00 10° NNW 19:11:12 50° ENE 19:12:02 46° E
STARLINK-26 4.1 19:09:27 10° NW 19:12:15 37° N 19:12:15 37° N
Cosmos 1869 Rocket 4.2 19:09:04 10° SSW 19:13:23 55° W 19:17:41 10° N
Cosmos 2208 Rocket 4.0 19:08:10 10° SSW 19:13:35 87° ESE 19:18:58 10° NNE
ARGOS Delta rocket 3.5 19:13:10 56° ESE 19:13:48 64° ENE 19:18:16 10° N
Meteor 1-11 Rocket 3.8 19:08:58 10° SSE 19:14:15 46° E 19:19:32 10° NNE
SPOT 3 Rocket 3.6 19:13:10 45° ESE 19:14:26 57° ENE 19:19:33 10° N
USA 102 4.3 19:17:28 68° SSE 19:17:28 68° SSE 19:20:13 24° SSW
CENTAUR R/B 3.7 19:12:52 10° NNW 19:20:11 40° NE 19:22:39 34° ENE
STARLINK-80 3.7 19:19:52 10° NW 19:23:11 62° NNW 19:23:11 62° NNW
CZ-2C R/B 3.2 19:18:39 12° SSE 19:24:07 87° WSW 19:29:48 10° NNW
Cosmos 1570 Rocket 4.5 19:22:48 10° SSW 19:27:58 60° WNW 19:33:13 10° NNE
Cosmos 2150 Rocket 4.0 19:22:35 10° NNW 19:28:00 64° ENE 19:28:23 62° E
SJ-6B 3.0 19:29:19 64° NW 19:29:19 64° NW 19:32:43 10° NNW
Ariane Rocket 4.2 19:27:01 10° S 19:31:50 42° W 19:36:42 10° NNW
Cosmos 540 Rocket 3.5 19:27:55 10° SSW 19:33:03 80° WNW 19:38:14 10° NNE
Cosmos 1125 Rocket 4.3 19:28:04 10° N 19:32:01 37° NNE 19:32:01 37° NNE
Okean 3 3.6 19:29:02 10° NNW 19:33:14 69° W 19:33:29 67° WSW
ATLAS 3B R/B 3.7 19:29:12 10° NNW 19:34:57 29° NE 19:35:31 28° NE
Cosmos 1627 Rocket 4.3 19:33:19 10° N 19:39:31 79° E 19:41:01 54° SSE
SL-08 RB Rocket 3.8 19:42:33 72° WNW 19:42:33 72° WNW 19:46:46 10° NNW
Meteor 1-13 Rocket 4.2 19:37:05 10° NNW 19:42:57 84° W 19:44:37 49° S
Cosmos 2297 Rocket 2.1 19:41:25 10° NNW 19:46:50 73° NE 19:46:50 73° NE
CZ-2C R/B 4.0 19:43:26 10° N 19:48:06 70° WNW 19:52:48 10° SSW
ATLAS 2AS CENTAUR R/B 3.8 19:49:15 10° S 19:53:45 35° S 19:53:45 35° S
Cosmos 2026 Rocket 3.9 19:51:17 10° N 19:57:28 82° W 19:58:21 66° SSW
Cosmos 2227 Rocket 2.4 20:00:33 10° NNW 20:05:17 63° NNW 20:05:17 63° NNW
USA 238 DEB 3.7 20:01:23 10° NW 20:08:37 82° SW 20:09:21 73° S
USA 238 3.7 20:01:29 10° NW 20:08:43 82° SW 20:09:24 74° S
H-2A R/B 3.8 20:04:50 10° SSW 20:09:32 30° W 20:14:19 10° NNW
Lacrosse 5 rocket 3.7 20:21:55 10° NW 20:23:51 25° NW 20:23:51 25° NW
Cosmos 2219 4.5 20:29:07 10° NW 20:34:13 36° WSW 20:34:13 36° WSW
Lacrosse 5 3.7 20:31:25 10° W 20:34:52 27° NW 20:34:52 27° NW
USA 234 4.1 20:42:41 41° N 20:42:41 41° N 20:47:38 10° NW
Cosmos 2263 Rocket 4.4 20:40:08 10° N 20:41:27 16° N 20:41:27 16° N
Resurs 01 Rocket 4.4 20:48:57 15° NW 20:48:57 15° NW 20:49:49 10° NNW
NOSS 3-2 (C) 4.5 20:55:07 10° NW 21:01:19 57° WNW 21:01:19 57° WNW
CENTAUR R/B 3.6 21:03:28 10° NW 21:09:51 57° WNW 21:09:51 57° WNW
ATLAS 3B R/B 4.2 21:19:33 10° NW 21:22:47 31° NW 21:22:47 31° NW
